DW5310 Weather Reports


time (UTC)temp
C
wind
direction
speed
KPH
gust
KPH
rain 1hr
cm
rain 24hr
cm
rain mn
cm
humidity
%
barometer
mb
20260507190007 15 165 1.6 11.3 0.00 0.00 0.00 66 1018.5
20260507185508 15 296 0.0 9.7 0.00 0.00 0.00 65 1018.5
20260507185007 15 218 3.2 9.7 0.00 0.00 0.00 66 1018.5
20260507184506 15 107 0.0 4.8 0.00 0.00 0.00 66 1018.5
20260507184006 15 238 0.0 4.8 0.00 0.00 0.00 67 1018.5
20260507183506 15 273 1.6 12.9 0.00 0.00 0.00 68 1018.5
20260507183006 15 119 4.8 12.9 0.00 0.00 0.00 68 1018.5
20260507182007 14 196 0.0 9.7 0.00 0.00 0.00 68 1018.5
20260507181506 14 307 1.6 8.0 0.00 0.00 0.00 69 1018.5
20260507181006 14 145 0.0 3.2 0.00 0.00 0.00 69 1018.5
20260507180506 13 282 0.0 8.0 0.00 0.00 0.00 69 1018.5
20260507180006 14 158 1.6 8.0 0.00 0.00 0.00 69 1018.5
20260507175507 13 248 0.0 3.2 0.00 0.00 0.00 70 1018.5
20260507175008 13 56 0.0 8.0 0.00 0.00 0.00 70 1018.5
20260507174506 13 127 0.0 8.0 0.00 0.00 0.00 70 1018.5
20260507174006 13 83 0.0 8.0 0.00 0.00 0.00 71 1018.5
20260507173507 13 80 1.6 9.7 0.00 0.00 0.00 71 1018.5
20260507173006 13 301 1.6 9.7 0.00 0.00 0.00 71 1018.5
20260507172506 13 35 1.6 9.7 0.00 0.00 0.00 72 1018.5
20260507172007 12 329 1.6 9.7 0.00 0.00 0.00 71 1018.5
20260507171506 12 173 0.0 12.9 0.00 0.00 0.00 72 1017.5
20260507171006 12 42 3.2 12.9 0.00 0.00 0.00 72 1017.5
20260507170507 12 72 0.0 12.9 0.00 0.00 0.00 73 1017.5
20260507170006 12 122 3.2 12.9 0.00 0.00 0.00 74 1018.5
20260507165506 12 18 0.0 8.0 0.00 0.00 0.00 74 1018.5
20260507165006 12 45 1.6 9.7 0.00 0.00 0.00 73 1018.5
20260507164506 11 205 1.6 9.7 0.00 0.00 0.00 74 1018.5
20260507164006 12 116 0.0 9.7 0.00 0.00 0.00 74 1018.5
20260507163506 11 305 0.0 3.2 0.00 0.00 0.00 74 1018.5
20260507163006 11 102 0.0 3.2 0.00 0.00 0.00 74 1018.5
20260507162506 11 167 0.0 3.2 0.00 0.00 0.00 75 1018.5
20260507162006 11 110 0.0 3.2 0.00 0.00 0.00 74 1018.5
20260507161506 11 66 0.0 3.2 0.00 0.00 0.00 74 1018.5
20260507160506 11 335 0.0 0.0 0.00 0.00 0.00 74 1018.5
20260507155006 11 66 0.0 0.0 0.00 0.00 0.00 75 1018.5
20260507154506 11 10 0.0 9.7 0.00 0.00 0.00 75 1018.5
20260507154008 11 38 1.6 9.7 0.00 0.00 0.00 76 1018.5
20260507153506 10 42 0.0 0.0 0.00 0.00 0.00 76 1018.5
20260507153006 10 70 0.0 0.0 0.00 0.00 0.00 76 1018.5
20260507152506 10 35 0.0 9.7 0.00 0.00 0.00 76 1018.5
20260507152006 10 43 1.6 9.7 0.00 0.00 0.00 76 1018.5
20260507151506 10 305 0.0 8.0 0.00 0.00 0.00 77 1018.5
20260507151006 10 83 0.0 8.0 0.00 0.00 0.00 77 1018.5
20260507150506 10 282 0.0 0.0 0.00 0.00 0.00 77 1018.5
20260507150006 10 63 0.0 0.0 0.00 0.00 0.00 76 1018.5
20260507145508 10 42 0.0 3.2 0.00 0.00 0.00 77 1018.5
20260507145006 10 64 0.0 3.2 0.00 0.00 0.00 77 1018.5
20260507144506 10 106 0.0 0.0 0.00 0.00 0.00 77 1018.5
20260507144006 10 91 0.0 8.0 0.00 0.00 0.00 77 1018.5
20260507143506 10 51 0.0 8.0 0.00 0.00 0.00 77 1018.5
20260507143006 10 45 0.0 8.0 0.00 0.00 0.00 77 1018.5
20260507142506 10 35 0.0 0.0 0.00 0.00 0.00 78 1018.5
20260507142006 10 90 0.0 0.0 0.00 0.00 0.00 78 1018.5
20260507141506 10 35 0.0 0.0 0.00 0.00 0.00 78 1017.5
20260507141007 10 41 0.0 9.7 0.00 0.00 0.00 79 1017.5
20260507140506 10 66 1.6 9.7 0.00 0.00 0.00 79 1017.5
20260507140006 10 57 0.0 0.0 0.00 0.00 0.00 79 1018.5
20260507135506 10 80 0.0 0.0 0.00 0.00 0.00 79 1018.5
20260507135007 10 80 0.0 0.0 0.00 0.00 0.00 79 1018.5
20260507134506 10 35 0.0 0.0 0.00 0.00 0.00 79 1018.5
20260507134006 10 35 0.0 0.0 0.00 0.00 0.00 79 1018.5
20260507133506 10 65 0.0 0.0 0.00 0.00 0.00 79 1018.5
20260507133005 10 35 0.0 0.0 0.00 0.00 0.00 79 1018.5
20260507132506 10 36 0.0 0.0 0.00 0.00 0.00 79 1018.5
20260507132006 10 305 0.0 0.0 0.00 0.00 0.00 79 1018.5
20260507131506 10 305 0.0 3.2 0.00 0.00 0.00 79 1018.5
20260507130506 10 98 0.0 3.2 0.00 0.00 0.00 79 1018.5
20260507130006 10 61 0.0 0.0 0.00 0.00 0.00 79 1017.5
20260507125506 10 43 0.0 0.0 0.00 0.00 0.00 79 1017.5
20260507125006 10 305 0.0 0.0 0.00 0.00 0.00 79 1017.5
20260507124505 10 105 0.0 0.0 0.00 0.00 0.00 79 1018.5
20260507124006 10 42 0.0 0.0 0.00 0.00 0.00 79 1018.5
20260507123505 10 62 0.0 0.0 0.00 0.00 0.00 79 1018.5
20260507123005 10 139 0.0 0.0 0.00 0.00 0.00 79 1017.5
20260507122505 10 44 0.0 0.0 0.00 0.00 0.00 79 1017.5
20260507121506 10 47 0.0 0.0 0.00 0.00 0.00 79 1018.5
20260507121005 10 35 0.0 0.0 0.00 0.00 0.00 79 1018.5
20260507120006 10 305 0.0 0.0 0.00 0.00 0.00 79 1018.5
20260507115505 10 305 0.0 0.0 0.00 0.00 0.00 79 1018.5
20260507115006 10 123 0.0 0.0 0.00 0.00 0.00 79 1018.5
20260507114505 10 170 0.0 0.0 0.00 0.00 0.00 79 1018.5
20260507114006 10 167 0.0 0.0 0.00 0.00 0.00 79 1018.5
20260507113507 10 58 0.0 0.0 0.00 0.00 0.00 80 1018.5
20260507113006 10 125 0.0 9.7 0.00 0.00 0.00 80 1018.5
20260507112505 10 50 0.0 9.7 0.00 0.00 0.00 80 1018.5
20260507112005 10 101 0.0 9.7 0.00 0.00 0.00 80 1018.5
20260507111506 10 117 0.0 0.0 0.00 0.00 0.00 81 1018.5
20260507111005 10 166 0.0 0.0 0.00 0.00 0.00 81 1018.5
20260507110506 10 305 0.0 0.0 0.00 0.00 0.00 81 1018.5
20260507110005 10 192 0.0 0.0 0.00 0.00 0.00 81 1018.5
20260507105505 10 112 0.0 0.0 0.00 0.00 0.00 81 1018.5
20260507105006 10 80 0.0 0.0 0.00 0.00 0.00 81 1018.5
20260507104506 10 58 0.0 0.0 0.00 0.00 0.00 81 1018.5
20260507103505 10 282 0.0 0.0 0.00 0.00 0.00 80 1018.5
20260507103006 10 80 0.0 0.0 0.00 0.00 0.00 80 1019.5
20260507101507 11 63 0.0 4.8 0.00 0.00 0.00 80 1019.5
20260507101005 11 305 0.0 4.8 0.00 0.00 0.00 80 1019.5
20260507100005 11 304 0.0 0.0 0.00 0.00 0.00 80 1019.5
20260507095505 11 50 0.0 0.0 0.00 0.00 0.00 80 1019.5
20260507095005 11 35 0.0 0.0 0.00 0.00 0.00 80 1019.5
20260507094505 11 98 0.0 0.0 0.00 0.00 0.00 80 1019.5
20260507094005 11 82 0.0 0.0 0.00 0.00 0.00 81 1019.5
20260507093005 11 148 0.0 0.0 0.00 0.00 0.00 81 1019.5
20260507092505 11 35 0.0 0.0 0.00 0.00 0.00 81 1019.5
20260507092005 11 47 0.0 0.0 0.00 0.00 0.00 81 1019.5
20260507091506 11 111 0.0 0.0 0.00 0.00 0.00 81 1019.5
20260507091005 11 215 0.0 0.0 0.00 0.00 0.00 81 1019.5
20260507090006 11 215 0.0 0.0 0.00 0.00 0.00 81 1020.5
20260507085505 11 282 0.0 0.0 0.00 0.00 0.00 81 1020.5
20260507085006 11 282 0.0 0.0 0.00 0.00 0.00 81 1020.5
20260507084006 11 270 0.0 0.0 0.00 0.00 0.00 81 1019.5
20260507083506 11 87 0.0 0.0 0.00 0.00 0.00 81 1019.5
20260507083005 11 35 0.0 0.0 0.00 0.00 0.00 81 1020.5
20260507082506 11 123 0.0 0.0 0.00 0.00 0.00 82 1020.5
20260507082005 11 192 0.0 0.0 0.00 0.00 0.00 82 1020.5
20260507081505 11 84 0.0 0.0 0.00 0.00 0.00 82 1020.5
20260507081005 11 204 0.0 0.0 0.00 0.00 0.00 82 1020.5
20260507080505 11 61 0.0 0.0 0.00 0.00 0.00 82 1020.5
20260507080005 11 148 0.0 0.0 0.00 0.00 0.00 81 1019.5
20260507075505 11 136 0.0 0.0 0.00 0.00 0.00 81 1019.5
20260507075005 11 116 0.0 0.0 0.00 0.00 0.00 82 1019.5
20260507074505 11 69 0.0 0.0 0.00 0.00 0.00 81 1020.5
20260507074005 11 58 0.0 0.0 0.00 0.00 0.00 81 1020.5
20260507073505 11 101 0.0 0.0 0.00 0.00 0.00 81 1020.5
20260507073006 11 134 0.0 0.0 0.00 0.00 0.00 81 1019.5
20260507072505 11 89 0.0 0.0 0.00 0.00 0.00 81 1019.5
20260507072006 11 230 0.0 0.0 0.00 0.00 0.00 81 1019.5
20260507071505 11 177 0.0 0.0 0.00 0.00 0.00 81 1019.5
20260507071005 11 35 0.0 0.0 0.00 0.00 0.00 81 1019.5
20260507070505 11 125 0.0 0.0 0.00 0.00 0.00 81 1019.5
20260507070010 11 145 0.0 0.0 0.00 0.00 0.00 81 1020.5
20260507065506 11 73 0.0 0.0 0.00 0.00 0.00 80 1020.5
20260507065006 11 191 0.0 0.0 0.00 0.00 0.00 80 1020.5
20260507064505 11 70 0.0 0.0 0.00 0.00 0.00 80 1019.5
20260507064005 11 109 0.0 0.0 0.00 0.00 0.00 80 1019.5
20260507063505 11 72 0.0 0.0 0.00 0.00 0.00 80 1019.5
20260507061505 11 138 0.0 8.0 0.00 0.00 0.00 80 1020.5
20260507061005 11 53 0.0 0.0 0.00 0.00 0.00 80 1020.5
20260507060505 11 305 0.0 0.0 0.00 0.00 0.00 80 1020.5
20260507060004 12 109 0.0 8.0 0.00 0.00 0.00 79 1020.5
20260507055005 12 52 1.6 8.0 0.00 0.00 0.00 79 1020.5
20260507054505 12 70 0.0 9.7 0.00 0.00 0.00 79 1020.5
20260507054005 12 333 1.6 9.7 0.00 0.00 0.00 79 1020.5
20260507053506 12 148 0.0 0.0 0.00 0.00 0.00 78 1020.5
20260507052505 12 267 0.0 8.0 0.00 0.00 0.00 78 1019.5
20260507052005 12 115 0.0 0.0 0.00 0.00 0.00 78 1019.5
20260507051505 12 76 0.0 3.2 0.00 0.00 0.00 78 1020.5
20260507051005 12 112 0.0 3.2 0.00 0.00 0.00 78 1020.5
20260507050505 12 114 0.0 0.0 0.00 0.00 0.00 78 1020.5
20260507050005 12 145 0.0 0.0 0.00 0.00 0.00 78 1020.5
20260507045505 12 111 0.0 8.0 0.00 0.00 0.00 77 1020.5
20260507045004 12 305 0.0 8.0 0.00 0.00 0.00 77 1020.5
20260507044505 12 116 1.6 8.0 0.00 0.00 0.00 77 1020.5
20260507044005 12 25 0.0 8.0 0.00 0.00 0.00 77 1020.5
20260507043505 13 72 0.0 14.5 0.00 0.00 0.00 76 1020.5
20260507042505 13 131 0.0 9.7 0.00 0.00 0.00 77 1019.5
20260507042005 13 78 0.0 9.7 0.00 0.00 0.00 77 1019.5
20260507041005 13 48 0.0 8.0 0.00 0.00 0.00 77 1019.5
20260507040504 13 103 0.0 8.0 0.00 0.00 0.00 77 1019.5
20260507035505 13 103 0.0 8.0 0.00 0.00 0.00 77 1018.5
20260507035005 13 69 0.0 0.0 0.00 0.00 0.00 77 1018.5
20260507034505 13 74 0.0 8.0 0.00 0.00 0.00 77 1018.5
20260507034006 13 92 0.0 8.0 0.00 0.00 0.00 76 1018.5
20260507033505 13 64 0.0 3.2 0.00 0.00 0.00 76 1018.5
20260507033005 13 305 0.0 3.2 0.00 0.00 0.00 76 1018.5
20260507032505 13 75 0.0 0.0 0.00 0.00 0.00 76 1018.5
20260507032004 13 43 0.0 0.0 0.00 0.00 0.00 76 1018.5
20260507031005 14 49 0.0 0.0 0.00 0.00 0.00 75 1018.5
20260507030505 14 54 0.0 0.0 0.00 0.00 0.00 75 1018.5
20260507030004 14 8 0.0 0.0 0.00 0.00 0.00 75 1018.5
20260507025004 15 58 0.0 0.0 0.00 0.00 0.00 74 1018.5
20260507024005 15 1 0.0 0.0 0.00 0.00 0.00 73 1018.5
20260507023505 15 98 0.0 11.3 0.00 0.00 0.00 73 1018.5
20260507023004 15 43 0.0 11.3 0.00 0.00 0.00 73 1018.5
20260507022504 15 35 0.0 0.0 0.00 0.00 0.00 73 1018.5
20260507021505 16 65 0.0 9.7 0.00 0.00 0.00 73 1017.5
20260507020505 16 82 0.0 9.7 0.00 0.00 0.00 72 1017.5
20260507015504 16 81 0.0 4.8 0.00 0.00 0.00 72 1018.5
20260507015004 16 343 0.0 8.0 0.00 0.00 0.00 72 1018.5
20260507014505 16 81 1.6 8.0 0.00 0.00 0.00 72 1017.5
20260507014004 17 44 0.0 3.2 0.00 0.00 0.00 71 1017.5
20260507013504 17 53 0.0 8.0 0.00 0.00 0.00 71 1017.5
20260507013004 17 305 1.6 8.0 0.00 0.00 0.00 72 1018.5
20260507012504 17 39 0.0 0.0 0.00 0.00 0.00 72 1018.5
20260507012004 17 305 0.0 0.0 0.00 0.00 0.00 71 1018.5
20260507011504 17 0 0.0 0.0 0.00 0.00 0.00 72 1018.5
20260507010504 18 344 0.0 0.0 0.00 0.00 0.00 71 1018.5
20260507010004 18 305 0.0 0.0 0.00 0.00 0.00 71 1018.5
20260507005504 18 318 0.0 0.0 0.00 0.00 0.00 71 1018.5
20260507005004 18 305 0.0 0.0 0.00 0.00 0.00 72 1018.5
20260507004505 18 24 0.0 0.0 0.00 0.00 0.00 71 1018.5
20260507004004 18 263 0.0 4.8 0.00 0.00 0.00 71 1018.5
20260507003504 18 38 0.0 4.8 0.00 0.00 0.00 71 1018.5
20260507003004 18 80 0.0 9.7 0.00 0.00 0.00 71 1018.5
20260507002506 18 35 0.0 9.7 0.00 0.00 0.00 71 1018.5
20260507002006 18 79 0.0 0.0 0.00 0.00 0.00 71 1018.5
20260507001504 18 76 0.0 0.0 0.00 0.00 0.00 71 1018.5
20260507001005 18 334 0.0 0.0 0.00 0.00 0.00 71 1018.5
20260507000505 18 58 0.0 0.0 0.00 0.00 0.00 70 1018.5
20260506235504 18 306 0.0 0.0 0.00 0.00 0.00 71 1018.5
20260506235004 18 35 0.0 0.0 0.00 0.00 0.00 71 1018.5
20260506234005 18 35 0.0 0.0 0.00 0.00 0.00 70 1019.5
20260506233505 18 97 0.0 0.0 0.00 0.00 0.00 70 1019.5
20260506232504 18 282 0.0 0.0 0.00 0.00 0.00 69 1018.5
20260506232004 18 238 0.0 0.0 0.00 0.00 0.00 71 1018.5
20260506231004 18 125 0.0 0.0 0.00 0.00 0.00 71 1018.5
20260506230503 18 118 0.0 0.0 0.00 0.00 0.00 72 1018.5
20260506230004 18 211 0.0 0.0 0.00 0.00 0.00 72 1018.5
20260506225504 17 117 0.0 0.0 0.00 0.00 0.00 72 1018.5
20260506224504 17 181 0.0 3.2 0.00 0.00 0.00 72 1018.5
20260506223504 17 282 0.0 0.0 0.00 0.00 0.00 74 1018.5
20260506223004 17 243 0.0 0.0 0.00 0.00 0.00 74 1018.5
20260506222504 17 305 0.0 0.0 0.00 0.00 0.00 75 1018.5
20260506221504 17 35 0.0 0.0 0.00 0.00 0.00 75 1018.5
20260506220504 17 35 0.0 0.0 0.00 0.00 0.00 75 1018.5
20260506220004 17 62 0.0 0.0 0.00 0.00 0.00 75 1018.5
20260506215504 17 91 0.0 0.0 0.00 0.00 0.00 75 1018.5
20260506215004 17 257 0.0 0.0 0.00 0.00 0.00 77 1018.5
20260506214504 17 133 0.0 8.0 0.00 0.00 0.00 77 1018.5
20260506214004 17 219 0.0 8.0 0.00 0.00 0.00 77 1018.5
20260506213504 17 305 0.0 0.0 0.00 0.00 0.00 77 1018.5
20260506213004 17 7 0.0 0.0 0.00 0.00 0.00 77 1018.5
20260506212504 17 198 0.0 0.0 0.00 0.00 0.00 78 1018.5
20260506211504 17 129 1.6 8.0 0.00 0.00 0.00 77 1018.5
20260506211004 17 135 0.0 3.2 0.00 0.00 0.00 78 1018.5
20260506210004 16 80 0.0 0.0 0.00 0.00 0.00 79 1018.5
20260506205004 16 293 0.0 9.7 0.00 0.00 0.00 79 1018.5
20260506204003 16 184 0.0 3.2 0.00 0.00 0.00 80 1018.5
20260506203504 16 282 0.0 0.0 0.00 0.00 0.00 80 1018.5
20260506203003 16 170 0.0 0.0 0.00 0.00 0.00 80 1018.5
20260506202504 16 58 0.0 0.0 0.00 0.00 0.00 81 1018.5
20260506202004 16 144 0.0 0.0 0.00 0.00 0.00 81 1018.5
20260506201505 16 260 0.0 0.0 0.00 0.00 0.00 81 1019.5
20260506200005 15 215 0.0 0.0 0.00 0.00 0.00 81 1019.5
20260506194504 16 140 0.0 8.0 0.00 0.00 0.00 82 1019.5
20260506194004 16 128 0.0 0.0 0.00 0.00 0.00 82 1019.5
20260506193504 16 143 0.0 0.0 0.00 0.00 0.00 82 1019.5
20260506193007 16 219 0.0 0.0 0.00 0.00 0.00 82 1018.5
20260506192506 16 256 0.0 11.3 0.00 0.00 0.00 82 1018.5
20260506192007 16 212 0.0 11.3 0.00 0.00 0.00 82 1018.5
20260506191507 16 171 3.2 9.7 0.00 0.00 0.00 83 1018.5
20260506191006 15 151 0.0 0.0 0.00 0.00 0.00 83 1018.5
20260506190507 15 244 0.0 0.0 0.00 0.00 0.00 84 1018.5